"2009-12-06 00:00:00",1477726,11.15,60.71,3.781,0.696,2.769,98.35271,-4.896,-3.569,44.89,0,109.3,13.67,-4.16,22.7
"2009-12-06 00:00:30",1477727,11.38,60.93,4.04,0.485,2.995,98.34023,-4.928,-3.584,44.81,0,109.3,13.67,-4.19,22.9
"2009-12-06 00:01:00",1477728,11.24,61.02,4.108,0.641,2.758,98.33028,-4.954,-3.616,45.08,0,109.3,13.67,-4.22,23.0
"2009-12-06 00:01:30",1477729,12.04,62.87,3.898,0.651,2.771,98.32832,-4.959,-3.604,44.86,0,109.3,13.67,-4.22,24.9
"2009-12-06 00:02:00",1477730,12.14,62.04,3.664,0.55,2.922,98.33166,-4.95,-3.635,44.06,0,109.3,13.67,-4.22,24.0
"2009-12-06 00:02:30",1477731,12.18,62.88,3.519,0.632,3.012,98.32938,-4.956,-3.645,43.46,0,109.3,13.67,-4.22,24.9
"2009-12-06 00:03:00",1477732,12.15,63.22,4.109,0.492,2.871,98.31747,-4.986,-3.654,43.98,0,109.4,13.67,-4.25,25.2
"2009-12-06 00:03:30",1477733,12.16,63.57,3.878,0.677,2.932,98.3047,-5.019,-3.653,43.95,0,109.3,13.67,-4.28,25.6
"2009-12-06 00:04:00",1477734,12.2,64.23,3.642,0.673,2.886,98.29932,-5.032,-3.69,43.87,0,109.3,13.67,-4.30,26.2
"2009-12-06 00:04:30",1477735,12.01,62.77,3.527,0.696,2.941,98.29932,-5.032,-3.712,44.13,0,109.3,13.67,-4.30,24.8
"2009-12-06 00:05:00",1477736,12.01,62.65,4.123,0.392,2.928,98.29932,-5.032,-3.708,44.45,0,109.3,13.67,-4.30,24.7
"2009-12-06 00:05:30",1477737,11.97,63.01,3.818,0.559,2.91,98.29932,-5.032,-3.721,44.56,0,109.3,13.67,-4.30,25.0
"2009-12-06 00:06:00",1477738,11.96,63.03,3.909,0.498,2.883,98.29932,-5.032,-3.748,44.34,0,109.3,13.67,-4.30,25.0
"2009-12-06 00:06:30",1477739,12.07,61.82,3.665,0.518,2.978,98.29478,-5.044,-3.742,44.51,0,109.3,13.67,-4.31,23.8
"2009-12-06 00:07:00",1477740,12,60.69,4.041,0.544,2.836,98.27551,-5.093,-3.755,45.05,0,109.3,13.67,-4.36,22.7
"2009-12-06 00:07:30",1477741,12.02,62.05,4.053,0.551,2.91,98.26559,-5.118,-3.752,45.33,0,109.3,13.67,-4.38,24.0
"2009-12-06 00:08:00",1477742,11.85,62.43,3.996,0.532,2.882,98.2653,-5.119,-3.78,45.4,0,109.3,13.68,-4.38,24.4
"2009-12-06 00:08:30",1477743,11.76,62.29,3.56,0.539,2.954,98.2653,-5.119,-3.815,45.09,0,109.3,13.68,-4.38,24.3
"2009-12-06 00:09:00",1477744,11.78,62.24,4.383,0.531,2.87,98.2653,-5.119,-3.817,45.08,0,109.3,13.68,-4.38,24.2
"2009-12-06 00:09:30",1477745,11.81,62.29,3.774,0.61,2.857,98.26218,-5.127,-3.812,45.27,0,109.3,13.68,-4.39,24.3
"2009-12-06 00:10:00",1477746,11.86,61.65,3.596,0.602,2.839,98.23838,-5.188,-3.836,45.3,0,109.2,13.69,-4.45,23.7
"2009-12-06 00:10:30",1477747,11.8,61.24,3.649,0.608,3,98.23129,-5.206,-3.846,45.42,0,109.3,13.69,-4.47,23.2
"2009-12-06 00:11:00",1477748,11.95,60.98,3.742,0.46,2.971,98.23129,-5.206,-3.854,45.44,0,109.3,13.69,-4.47,23.0
"2009-12-06 00:11:30",1477749,11.93,61.21,3.763,0.62,2.851,98.23129,-5.206,-3.856,45.3,0,109.2,13.69,-4.47,23.2
"2009-12-06 00:12:00",1477750,12.07,60.86,3.787,0.615,2.903,98.23129,-5.206,-3.867,45.13,0,109.2,13.69,-4.47,22.9
"2009-12-06 00:12:30",1477751,11.92,60.79,3.403,0.723,2.943,98.23129,-5.206,-3.901,45.17,0,109.2,13.69,-4.47,22.8
"2009-12-06 00:13:00",1477752,12.08,60.55,4.106,0.379,2.849,98.23129,-5.206,-3.908,45.16,0,109.2,13.69,-4.47,22.5
"2009-12-06 00:13:30",1477753,12.07,60.5,4.038,0.538,2.86,98.2225,-5.228,-3.906,45.2,0,109.2,13.69,-4.49,22.5
"2009-12-06 00:14:00",1477754,11.98,61.48,4.053,0.487,2.927,98.20408,-5.275,-3.926,45.14,0,109.2,13.69,-4.54,23.5
"2009-12-06 00:14:30",1477755,12.18,62.36,3.584,0.531,2.996,98.19756,-5.291,-3.928,44.95,0,109.2,13.69,-4.56,24.4
"2009-12-06 00:15:00",1477756,12.18,62.13,4.15,0.515,2.937,98.19811,-5.29,-3.929,45.09,0,109.2,13.69,-4.56,24.1
"2009-12-06 00:15:30",1477757,12.09,62.96,4.146,0.518,2.98,98.19784,-5.291,-3.931,44.98,0,109.2,13.69,-4.56,25.0
"2009-12-06 00:16:00",1477758,11.97,62.57,3.708,0.615,2.852,98.19923,-5.287,-3.968,44.92,0,109.2,13.69,-4.55,24.6
"2009-12-06 00:16:30",1477759,12.3,62.53,3.753,0.35,2.992,98.19754,-5.291,-3.973,44.95,0,109.2,13.69,-4.56,24.5
"2009-12-06 00:17:00",1477760,12.16,62.12,3.839,0.641,2.685,98.19385,-5.301,-3.976,45.31,0,109.2,13.69,-4.57,24.1
"2009-12-06 00:17:30",1477761,12.21,63.3,4.046,0.512,2.803,98.17709,-5.344,-3.989,45.32,0,109.2,13.69,-4.61,25.3
"2009-12-06 00:18:00",1477762,12.47,62.54,3.647,0.539,2.64,98.16746,-5.368,-4.015,44.92,0,109.2,13.69,-4.63,24.5
"2009-12-06 00:18:30",1477763,12.38,63.93,3.202,0.619,2.687,98.16605,-5.372,-4.013,44.78,0,109.2,13.69,-4.64,25.9
"2009-12-06 00:19:00",1477764,12.25,63.11,3.611,0.634,2.622,98.17162,-5.357,-4.025,45.24,0,109.2,13.69,-4.62,25.1
"2009-12-06 00:19:30",1477765,12.29,63.84,3.196,0.632,2.638,98.17076,-5.36,-4.046,45.13,0,109.2,13.69,-4.63,25.8
"2009-12-06 00:20:00",1477766,12.32,64.12,4.067,0.487,2.878,98.16421,-5.376,-4.055,45.12,0,109.2,13.69,-4.64,26.1
"2009-12-06 00:20:30",1477767,12.3,63.99,3.642,0.456,3.053,98.14686,-5.42,-4.071,45.09,0,109.2,13.69,-4.69,26.0
"2009-12-06 00:21:00",1477768,12.22,63.16,4.062,0.521,2.889,98.14788,-5.418,-4.069,45.02,0,109.2,13.69,-4.68,25.2
"2009-12-06 00:21:30",1477769,12.16,64,2.809,0.708,2.733,98.15039,-5.412,-4.075,45.05,0,109.2,13.69,-4.68,26.0
"2009-12-06 00:22:00",1477770,12.23,64.92,4.145,0.571,2.723,98.15345,-5.404,-4.094,45.21,0,109.2,13.69,-4.67,26.9
"2009-12-06 00:22:30",1477771,12.16,66.13,3.579,0.546,2.757,98.15429,-5.402,-4.102,45.39,0,109.2,13.69,-4.67,28.1
"2009-12-06 00:23:00",1477772,12.3,65.72,4.023,0.535,2.657,98.1554,-5.399,-4.117,45.57,0,109.2,13.69,-4.67,27.7
"2009-12-06 00:23:30",1477773,12.31,65.96,4.114,0.543,2.582,98.15568,-5.398,-4.115,45.7,0,109.2,13.69,-4.67,28.0
"2009-12-06 00:24:00",1477774,12.27,66.34,4.008,0.539,2.599,98.15482,-5.4,-4.126,45.73,0,109.2,13.69,-4.67,28.3
"2009-12-06 00:24:30",1477775,12.4,67.57,3.522,0.544,2.67,98.13839,-5.442,-4.15,45.72,0,109.2,13.69,-4.71,29.6
"2009-12-06 00:25:00",1477776,12.52,67.65,4.127,0.463,2.688,98.12365,-5.48,-4.156,45.75,0,109.2,13.7,-4.75,29.7
"2009-12-06 00:25:30",1477777,12.7,67.73,3.948,0.498,2.546,98.12083,-5.487,-4.136,45.9,0,109.2,13.7,-4.75,29.7
"2009-12-06 00:26:00",1477778,12.82,67.29,3.995,0.505,2.529,98.12054,-5.487,-4.164,46.06,0,109.2,13.7,-4.75,29.3
"2009-12-06 00:26:30",1477779,12.7,68.47,3.574,0.513,2.855,98.12083,-5.487,-4.178,46.17,0,109.2,13.7,-4.75,30.5
"2009-12-06 00:27:00",1477780,12.64,68.01,3.602,0.468,2.673,98.12222,-5.483,-4.18,46.26,0,109.3,13.7,-4.75,30.0
"2009-12-06 00:27:30",1477781,12.46,67.62,3.523,0.707,2.623,98.12389,-5.479,-4.168,46.33,0,109.2,13.7,-4.75,29.6
"2009-12-06 00:28:00",1477782,12.32,68.24,3.361,0.708,2.597,98.12132,-5.486,-4.185,46.29,0,109.2,13.7,-4.75,30.2
"2009-12-06 00:28:30",1477783,12.27,68.5,2.491,0.708,2.649,98.1074,-5.521,-4.209,46.27,0,109.2,13.7,-4.79,30.5
"2009-12-06 00:29:00",1477784,12.24,68.46,3.243,0.707,2.444,98.10281,-5.533,-4.207,46.35,0,109.2,13.7,-4.80,30.5
"2009-12-06 00:29:30",1477785,12.21,68.26,3.778,0.534,2.462,98.09573,-5.551,-4.215,46.34,0,109.2,13.7,-4.82,30.3
"2009-12-06 00:30:00",1477786,12.06,68.24,3.692,0.632,2.538,98.09459,-5.554,-4.245,46.37,0,109.2,13.7,-4.82,30.2
"2009-12-06 00:30:30",1477787,12.15,68.86,3.196,0.621,2.542,98.09459,-5.554,-4.237,46.4,0,109.2,13.7,-4.82,30.9
"2009-12-06 00:31:00",1477788,12.41,70.16,4.126,0.53,2.443,98.09459,-5.554,-4.255,46.48,0,109.2,13.7,-4.82,32.2
"2009-12-06 00:31:30",1477789,12.44,70.69,4.079,0.609,2.447,98.09459,-5.554,-4.252,46.24,0,109.2,13.7,-4.82,32.7
"2009-12-06 00:32:00",1477790,12.47,70.92,3.822,0.609,2.383,98.09431,-5.554,-4.257,46.07,0,109.2,13.7,-4.82,32.9
"2009-12-06 00:32:30",1477791,12.42,71.28,3.121,0.538,2.442,98.09261,-5.559,-4.264,46.33,0,109.2,13.71,-4.83,33.3
"2009-12-06 00:33:00",1477792,12.51,71.37,3.667,0.467,2.268,98.08835,-5.569,-4.279,46.47,0,109.2,13.71,-4.84,33.4
"2009-12-06 00:33:30",1477793,12.5,72,3.769,0.617,2.244,98.07162,-5.612,-4.274,46.5,0,109.2,13.71,-4.88,34.0
"2009-12-06 00:34:00",1477794,12.49,72.45,3.668,0.609,2.399,98.06424,-5.631,-4.292,46.34,0,109.2,13.71,-4.90,34.4
"2009-12-06 00:34:30",1477795,12.46,72.63,3.571,0.604,2.48,98.06084,-5.639,-4.304,46.18,0,109.2,13.71,-4.91,34.6
"2009-12-06 00:35:00",1477796,12.51,72.92,3.783,0.449,2.34,98.06055,-5.64,-4.297,46.28,0,109.2,13.71,-4.91,34.9
"2009-12-06 00:35:30",1477797,12.29,72.65,3.635,0.595,2.373,98.06055,-5.64,-4.295,46.47,0,109.2,13.71,-4.91,34.7
"2009-12-06 00:36:00",1477798,12.35,72.71,3.824,0.639,2.246,98.06055,-5.64,-4.325,46.62,0,109.2,13.7,-4.91,34.7
"2009-12-06 00:36:30",1477799,12.4,73.33,3.139,0.711,2.296,98.06055,-5.64,-4.321,46.62,0,109.2,13.7,-4.91,35.3
"2009-12-06 00:37:00",1477800,12.29,73.18,3.674,0.51,2.245,98.06055,-5.64,-4.35,46.7,0,109.3,13.7,-4.91,35.2
"2009-12-06 00:37:30",1477801,11.98,73.47,3.199,0.712,2.362,98.05801,-5.647,-4.331,46.89,0,109.2,13.7,-4.91,35.5
"2009-12-06 00:38:00",1477802,11.87,73.57,3.155,0.795,2.266,98.05006,-5.667,-4.357,47.03,0,109.2,13.7,-4.93,35.6
"2009-12-06 00:38:30",1477803,11.86,74.06,3.589,0.545,2.449,98.04439,-5.681,-4.352,47.19,0,109.2,13.7,-4.95,36.1
"2009-12-06 00:39:00",1477804,11.71,74.22,3.443,0.71,2.23,98.03844,-5.696,-4.368,47.16,0,109.2,13.7,-4.96,36.2
"2009-12-06 00:39:30",1477805,11.66,74.26,3.255,0.63,2.204,98.03618,-5.702,-4.366,47.1,0,109.2,13.71,-4.97,36.3
"2009-12-06 00:40:00",1477806,11.58,73.24,3.716,0.637,2.236,98.03389,-5.708,-4.384,47.1,0,109.2,13.7,-4.98,35.2
"2009-12-06 00:40:30",1477807,11.48,74.4,2.552,0.711,2.235,98.02991,-5.718,-4.386,47.2,0,109.2,13.7,-4.99,36.4
"2009-12-06 00:41:00",1477808,11.49,74.59,3.16,0.707,2.118,98.02794,-5.723,-4.384,47.37,0,109.2,13.71,-4.99,36.6
"2009-12-06 00:41:30",1477809,11.59,73.7,3.664,0.502,2.24,98.02848,-5.722,-4.377,47.55,0,109.2,13.72,-4.99,35.7
"2009-12-06 00:42:00",1477810,11.5,74.42,3.857,0.594,2.237,98.02766,-5.724,-4.377,47.64,0,109.2,13.72,-4.99,36.4
"2009-12-06 00:42:30",1477811,11.47,74.85,3.623,0.634,2.35,98.02766,-5.724,-4.379,47.67,0,109.2,13.72,-4.99,36.8
"2009-12-06 00:43:00",1477812,11.38,75.14,3.644,0.613,2.22,98.02766,-5.724,-4.376,47.67,0,109.3,13.72,-4.99,37.1
"2009-12-06 00:43:30",1477813,11.34,74.97,3.331,0.712,2.104,98.02737,-5.725,-4.39,47.58,0,109.2,13.72,-4.99,37.0
"2009-12-06 00:44:00",1477814,11.44,74.97,2.85,0.785,1.96,98.02737,-5.725,-4.411,47.77,0,109.2,13.72,-4.99,37.0
"2009-12-06 00:44:30",1477815,11.44,74.79,3.199,0.649,2.18,98.02737,-5.725,-4.4,47.94,0,109.2,13.72,-4.99,36.8
"2009-12-06 00:45:00",1477816,11.3,75.3,3.229,0.616,2.115,98.02709,-5.725,-4.398,47.98,0,109.2,13.72,-4.99,37.3
"2009-12-06 00:45:30",1477817,11.15,75.83,2.633,0.781,2.065,98.02737,-5.725,-4.403,47.91,0,109.2,13.72,-4.99,37.8
"2009-12-06 00:46:00",1477818,11.12,75.97,2.572,0.707,1.907,98.02821,-5.723,-4.405,47.85,0,109.2,13.72,-4.99,38.0
"2009-12-06 00:46:30",1477819,11.16,76.19,3.097,0.714,2.211,98.02793,-5.723,-4.407,47.8,0,109.2,13.72,-4.99,38.2
"2009-12-06 00:47:00",1477820,11.16,75.85,3.241,0.608,2.091,98.02987,-5.718,-4.414,47.67,0,109.2,13.72,-4.99,37.8
"2009-12-06 00:47:30",1477821,11.25,75.32,3.683,0.626,2.04,98.03043,-5.717,-4.404,47.47,0,109.2,13.72,-4.98,37.3
"2009-12-06 00:48:00",1477822,11.11,75.35,3.704,0.629,2.063,98.03348,-5.709,-4.395,47.32,0,109.2,13.72,-4.98,37.3
"2009-12-06 00:48:30",1477823,11.03,75.76,3.14,0.629,2.124,98.03034,-5.717,-4.398,47.15,0,109.2,13.72,-4.99,37.8
"2009-12-06 00:49:00",1477824,11.07,76.28,3.786,0.505,2.014,98.02691,-5.726,-4.422,46.93,0,109.2,13.72,-4.99,38.3
"2009-12-06 00:49:30",1477825,11.1,76.37,3.689,0.625,1.989,98.02087,-5.741,-4.406,46.85,0,109.2,13.72,-5.01,38.4
"2009-12-06 00:50:00",1477826,11.31,76.73,3.806,0.625,2.042,98.01657,-5.752,-4.424,47.63,0,109.2,13.72,-5.02,38.7
"2009-12-06 00:50:30",1477827,11.46,77.3,3.79,0.622,2.119,98.01538,-5.755,-4.428,48.28,0,109.2,13.72,-5.02,39.3
"2009-12-06 00:51:00",1477828,11.37,77.81,2.813,0.697,1.934,98.01619,-5.753,-4.433,48.64,0,109.2,13.73,-5.02,39.8
"2009-12-06 00:51:30",1477829,11.26,77.29,3.284,0.691,1.93,98.01725,-5.75,-4.424,48.82,0,109.2,13.73,-5.02,39.3
"2009-12-06 00:52:00",1477830,11.15,77.35,3.138,0.71,1.907,98.01697,-5.751,-4.427,48.87,0,109.2,13.72,-5.02,39.3
"2009-12-06 00:52:30",1477831,11.18,77.46,3.166,0.625,2.086,98.01752,-5.75,-4.44,48.74,0,109.2,13.72,-5.02,39.5
"2009-12-06 00:53:00",1477832,11.29,77.07,3.284,0.697,1.955,98.01613,-5.753,-4.446,48.76,0,109.2,13.72,-5.02,39.1
"2009-12-06 00:53:30",1477833,11.42,77.66,3.278,0.707,1.938,98.01891,-5.746,-4.425,48.7,0,109.2,13.72,-5.01,39.7
"2009-12-06 00:54:00",1477834,11.54,77.74,3.348,0.708,1.851,98.01807,-5.748,-4.442,48.3,0,109.2,13.72,-5.02,39.7
"2009-12-06 00:54:30",1477835,11.64,78.67,2.525,0.724,1.937,98.01891,-5.746,-4.455,47.8,0,109.2,13.72,-5.01,40.7
"2009-12-06 00:55:00",1477836,11.65,78.69,2.897,0.693,1.763,98.01919,-5.745,-4.459,47.44,0,109.2,13.72,-5.01,40.7
"2009-12-06 00:55:30",1477837,11.49,77.74,3.748,0.644,1.992,98.01864,-5.747,-4.438,47.07,0,109.2,13.72,-5.02,39.7
"2009-12-06 00:56:00",1477838,11.09,77.69,3.264,0.644,2.017,98.01836,-5.748,-4.454,47.03,0,109.2,13.72,-5.02,39.7
"2009-12-06 00:56:30",1477839,10.89,77.85,3.213,0.73,2.162,98.01723,-5.75,-4.463,47.34,0,109.2,13.72,-5.02,39.8
"2009-12-06 00:57:00",1477840,10.97,77.44,3.421,0.703,1.987,98.01408,-5.758,-4.461,47.4,0,109.2,13.72,-5.03,39.4
"2009-12-06 00:57:30",1477841,10.89,78.02,2.532,0.715,1.811,98.00955,-5.77,-4.47,47.17,0,109.2,13.72,-5.04,40.0
"2009-12-06 00:58:00",1477842,10.62,77.83,2.693,0.802,1.955,98.00019,-5.794,-4.483,47.22,0,109.2,13.73,-5.06,39.8
"2009-12-06 00:58:30",1477843,10.6,77.6,3.307,0.708,2.115,97.99734,-5.801,-4.49,47.67,0,109.2,13.73,-5.07,39.6
"2009-12-06 00:59:00",1477844,10.79,78.16,1.93,0.7,1.727,97.99535,-5.806,-4.499,47.72,0,109.2,13.73,-5.07,40.2
"2009-12-06 00:59:30",1477845,10.77,77.79,3.24,0.706,1.856,97.99446,-5.808,-4.475,47.48,0,109.2,13.73,-5.08,39.8
"2009-12-06 01:00:00",1477846,11.05,78.84,3.208,0.725,1.724,97.99218,-5.814,-4.489,47.67,0,109.2,13.73,-5.08,40.8
"2009-12-06 01:00:30",1477847,11.3,79.83,1.785,0.788,1.764,97.98907,-5.822,-4.478,48.23,0,109.2,13.73,-5.09,41.8
"2009-12-06 01:01:00",1477848,11.25,79.39,3.578,0.603,1.996,97.99016,-5.819,-4.488,48.53,0,109.2,13.73,-5.09,41.4
"2009-12-06 01:01:30",1477849,11.05,79.4,3.252,0.706,1.868,97.99126,-5.817,-4.47,48.7,0,109.2,13.73,-5.09,41.4
"2009-12-06 01:02:00",1477850,10.98,79.59,2.713,0.712,1.75,97.99155,-5.816,-4.5,48.74,0,109.2,13.73,-5.08,41.6
"2009-12-06 01:02:30",1477851,11.24,80.3,2.541,0.783,1.902,97.99126,-5.817,-4.502,48.87,0,109.2,13.73,-5.09,42.3
"2009-12-06 01:03:00",1477852,11.29,80.4,2.771,0.706,1.79,97.99155,-5.816,-4.515,49.01,0,109.2,13.73,-5.08,42.4
"2009-12-06 01:03:30",1477853,11.27,79.88,2.655,0.702,1.687,97.99155,-5.816,-4.501,49.1,0,109.2,13.73,-5.08,41.9
"2009-12-06 01:04:00",1477854,11.29,80.1,3.375,0.704,1.894,97.99182,-5.815,-4.504,49.1,0,109.2,13.73,-5.08,42.1
"2009-12-06 01:04:30",1477855,11.21,80.8,1.599,0.788,1.859,97.99097,-5.817,-4.533,49.21,0,109.2,13.73,-5.09,42.8
"2009-12-06 01:05:00",1477856,11.32,79.76,3.873,0.505,2.006,97.98559,-5.831,-4.529,49.14,0,109.3,13.73,-5.10,41.8
"2009-12-06 01:05:30",1477857,11.1,80.4,3.23,0.707,1.809,97.97056,-5.869,-4.517,49.2,0,109.2,13.73,-5.14,42.4
"2009-12-06 01:06:00",1477858,11.01,80.4,3.262,0.708,1.841,97.96602,-5.881,-4.54,49.19,0,109.2,13.73,-5.15,42.4
"2009-12-06 01:06:30",1477859,10.97,80.8,2.776,0.789,1.869,97.95977,-5.897,-4.55,49.09,0,109.2,13.74,-5.17,42.8
"2009-12-06 01:07:00",1477860,11.15,81.1,2.737,0.688,1.825,97.95779,-5.902,-4.558,48.99,0,109.2,13.74,-5.17,43.1
"2009-12-06 01:07:30",1477861,11.08,80.8,2.135,0.801,1.774,97.95779,-5.902,-4.561,48.72,0,109.2,13.74,-5.17,42.8
"2009-12-06 01:08:00",1477862,11.14,80.6,2.773,0.708,1.688,97.95779,-5.902,-4.575,48.55,0,109.2,13.74,-5.17,42.6
"2009-12-06 01:08:30",1477863,11.13,79.89,3.119,0.782,1.833,97.95779,-5.902,-4.566,48.8,0,109.2,13.74,-5.17,41.9
"2009-12-06 01:09:00",1477864,11.3,80.6,3.108,0.595,1.69,97.95779,-5.902,-4.576,49.63,0,109.2,13.73,-5.17,42.6
"2009-12-06 01:09:30",1477865,11.25,80.1,3.676,0.617,1.791,97.95779,-5.902,-4.577,49.71,0,109.2,13.73,-5.17,42.1
"2009-12-06 01:10:00",1477866,11.15,80.6,2.75,0.717,1.708,97.95524,-5.908,-4.581,49.11,0,109.2,13.73,-5.18,42.6
"2009-12-06 01:10:30",1477867,11.29,81.1,3.394,0.726,1.858,97.94048,-5.946,-4.623,48.74,0,109.2,13.73,-5.21,43.1
"2009-12-06 01:11:00",1477868,11.43,81.1,2.382,0.684,1.67,97.93056,-5.971,-4.612,48.84,0,109.2,13.73,-5.24,43.1
"2009-12-06 01:11:30",1477869,11.39,81,2.097,0.787,1.511,97.92744,-5.979,-4.62,49.94,0,109.2,13.73,-5.25,43.0
"2009-12-06 01:12:00",1477870,11.33,80.5,3.244,0.719,1.655,97.92404,-5.988,-4.634,50.04,0,109.2,13.73,-5.26,42.5
"2009-12-06 01:12:30",1477871,11.16,80.8,2.742,0.786,1.774,97.92375,-5.988,-4.652,49.83,0,109.2,13.73,-5.26,42.8
"2009-12-06 01:13:00",1477872,11.23,80.2,3.178,0.61,1.599,97.92375,-5.988,-4.659,49.66,0,109.2,13.73,-5.26,42.2
"2009-12-06 01:13:30",1477873,11.1,80.1,2.866,0.784,1.581,97.92347,-5.989,-4.637,49.77,0,109.2,13.73,-5.26,42.1
"2009-12-06 01:14:00",1477874,11.11,80.5,2.825,0.713,1.536,97.91865,-6.001,-4.669,49.84,0,109.2,13.74,-5.27,42.5
"2009-12-06 01:14:30",1477875,11.1,80.5,1.532,0.789,1.597,97.90022,-6.048,-4.685,50.03,0,109.2,13.74,-5.32,42.5
"2009-12-06 01:15:00",1477876,11.31,80.2,3.183,0.6,1.641,97.89113,-6.071,-4.691,50.28,0,109.2,13.74,-5.34,42.2
"2009-12-06 01:15:30",1477877,11.26,80.3,3.174,0.716,1.496,97.88972,-6.075,-4.693,50.59,0,109.2,13.74,-5.34,42.3
"2009-12-06 01:16:00",1477878,11.17,80.4,3.243,0.71,1.623,97.88972,-6.075,-4.697,50.73,0,109.2,13.74,-5.34,42.4
"2009-12-06 01:16:30",1477879,11.19,80.6,2.762,0.71,1.613,97.88972,-6.075,-4.72,50.77,0,109.2,13.74,-5.34,42.6
"2009-12-06 01:17:00",1477880,11.18,80.9,3.249,0.702,1.464,97.88972,-6.075,-4.739,50.82,0,109.2,13.74,-5.34,42.9
"2009-12-06 01:17:30",1477881,11.18,81.7,2.709,0.711,1.459,97.88914,-6.076,-4.714,50.75,0,109.2,13.74,-5.35,43.7
"2009-12-06 01:18:00",1477882,11.12,81.7,2.759,0.796,1.508,97.87667,-6.108,-4.76,50.73,0,109.2,13.74,-5.38,43.7
"2009-12-06 01:18:30",1477883,11.2,81.5,3.283,0.714,1.768,97.86958,-6.126,-4.768,50.87,0,109.2,13.74,-5.40,43.5
"2009-12-06 01:19:00",1477884,11.22,82.4,1.516,0.698,1.4,97.86278,-6.144,-4.782,50.87,0,109.2,13.74,-5.41,44.4
"2009-12-06 01:19:30",1477885,11.2,82.3,3.239,0.718,1.47,97.85625,-6.16,-4.77,50.65,0,109.2,13.74,-5.43,44.3
"2009-12-06 01:20:00",1477886,11.14,82.9,2.707,0.727,1.431,97.85568,-6.162,-4.778,50.5,0,109.2,13.74,-5.43,44.9
"2009-12-06 01:20:30",1477887,10.83,83,2.794,0.726,1.616,97.85568,-6.162,-4.785,50.57,0,109.2,13.74,-5.43,45.0
"2009-12-06 01:21:00",1477888,10.8,84.2,2.52,0.606,1.609,97.85539,-6.162,-4.802,50.27,0,109.1,13.74,-5.43,46.2
"2009-12-06 01:21:30",1477889,10.67,85,2.623,0.706,1.624,97.85483,-6.164,-4.796,49.26,0,109.2,13.74,-5.43,47.0
"2009-12-06 01:22:00",1477890,10.52,85.3,2.096,0.706,1.67,97.84887,-6.179,-4.829,48.77,0,109.2,13.74,-5.45,47.3
"2009-12-06 01:22:30",1477891,10.45,85.3,3.229,0.708,1.823,97.84292,-6.194,-4.822,48.56,0,109.2,13.74,-5.46,47.3
"2009-12-06 01:23:00",1477892,10.56,85.2,3.208,0.592,1.7,97.8344,-6.216,-4.822,48.45,0,109.2,13.74,-5.49,47.2
"2009-12-06 01:23:30",1477893,10.57,84.3,3.427,0.737,1.625,97.83157,-6.223,-4.813,48.32,0,109.2,13.75,-5.49,46.3
"2009-12-06 01:24:00",1477894,10.69,84.4,3.258,0.712,1.552,97.82845,-6.231,-4.843,47.86,0,109.2,13.75,-5.50,46.4
"2009-12-06 01:24:30",1477895,10.7,84.4,2.656,0.709,1.617,97.83015,-6.227,-4.841,47.65,0,109.2,13.75,-5.50,46.4
"2009-12-06 01:25:00",1477896,10.79,83.9,3.287,0.701,1.485,97.82788,-6.232,-4.854,48.29,0,109.2,13.74,-5.50,45.9
"2009-12-06 01:25:30",1477897,10.73,83.3,3.064,0.736,1.482,97.82874,-6.23,-4.849,48.78,0,109.2,13.74,-5.50,45.3
"2009-12-06 01:26:00",1477898,10.72,83.2,2.73,0.782,1.446,97.8259,-6.237,-4.853,48.77,0,109.1,13.74,-5.51,45.2
"2009-12-06 01:26:30",1477899,10.76,82.9,3.025,0.716,1.511,97.82362,-6.243,-4.857,49.23,0,109.2,13.74,-5.51,44.9
"2009-12-06 01:27:00",1477900,10.83,83.7,2.636,0.609,1.366,97.82165,-6.248,-4.861,49.6,0,109.1,13.74,-5.52,45.7
"2009-12-06 01:27:30",1477901,10.7,83.3,2.52,0.713,1.33,97.82165,-6.248,-4.862,49.65,0,109.1,13.74,-5.52,45.3
"2009-12-06 01:28:00",1477902,10.63,83.9,1.914,0.789,1.442,97.82165,-6.248,-4.873,49.76,0,109.1,13.74,-5.52,45.9
"2009-12-06 01:28:30",1477903,10.65,83.8,2.743,0.623,1.569,97.82165,-6.248,-4.886,49.58,0,109.2,13.74,-5.52,45.8
"2009-12-06 01:29:00",1477904,10.64,83.7,2.859,0.696,1.54,97.82165,-6.248,-4.878,48.96,0,109.2,13.74,-5.52,45.7
"2009-12-06 01:29:30",1477905,10.83,83,2.762,0.796,1.338,97.82165,-6.248,-4.87,49.21,0,109.2,13.74,-5.52,45.0
"2009-12-06 01:30:00",1477906,10.84,81.9,2.812,0.715,1.294,97.82165,-6.248,-4.89,49.7,0,109.2,13.74,-5.52,43.9
"2009-12-06 01:30:30",1477907,10.84,82.6,2.84,0.71,1.438,97.82165,-6.248,-4.906,49.99,0,109.1,13.74,-5.52,44.6
"2009-12-06 01:31:00",1477908,10.89,83,1.824,0.69,1.292,97.82165,-6.248,-4.898,49.79,0,109.1,13.75,-5.52,45.0
"2009-12-06 01:31:30",1477909,10.76,81.2,2.768,0.71,1.252,97.81796,-6.258,-4.883,49.78,0,109.2,13.75,-5.53,43.2
"2009-12-06 01:32:00",1477910,10.74,80.2,2.782,0.711,1.157,97.80888,-6.281,-4.911,50.17,0,109.1,13.75,-5.55,42.2
"2009-12-06 01:32:30",1477911,10.73,79.92,2.498,0.701,1.226,97.80321,-6.295,-4.919,50.73,0,109.2,13.75,-5.57,41.9
"2009-12-06 01:33:00",1477912,10.8,79.54,2.747,0.612,1.104,97.7964,-6.313,-4.944,50.97,0,109.2,13.75,-5.58,41.5
"2009-12-06 01:33:30",1477913,10.66,80,2.741,0.703,1.125,97.79272,-6.322,-4.918,51.19,0,109.1,13.75,-5.59,42.0
"2009-12-06 01:34:00",1477914,10.56,81.1,2.819,0.625,1.338,97.78818,-6.333,-4.934,50.86,0,109.1,13.76,-5.60,43.1
"2009-12-06 01:34:30",1477915,10.29,81.7,2.627,0.713,1.453,97.78761,-6.335,-4.965,50.06,0,109.1,13.76,-5.61,43.7
"2009-12-06 01:35:00",1477916,10.29,82.8,2.54,0.616,1.448,97.78761,-6.335,-4.963,49.47,0,109.2,13.76,-5.61,44.8
"2009-12-06 01:35:30",1477917,10.15,81.9,2.772,0.809,1.399,97.78761,-6.335,-4.954,49.18,0,109.1,13.76,-5.61,43.9
"2009-12-06 01:36:00",1477918,10.14,82.7,2.703,0.803,1.381,97.78761,-6.335,-4.974,49.18,0,109.1,13.76,-5.61,44.7
"2009-12-06 01:36:30",1477919,10.21,82.8,3.172,0.714,1.464,97.78761,-6.335,-4.96,49.11,0,109.1,13.76,-5.61,44.8
"2009-12-06 01:37:00",1477920,10.05,84.9,2.532,0.6,1.392,97.78761,-6.335,-4.977,49.05,0,109.2,13.76,-5.61,46.9
"2009-12-06 01:37:30",1477921,9.75,86,2.658,0.72,1.474,97.78788,-6.334,-4.971,48.92,0,109.1,13.76,-5.60,48.0
"2009-12-06 01:38:00",1477922,9.76,85.5,2.701,0.713,1.43,97.78788,-6.334,-4.973,48.21,0,109.1,13.76,-5.60,47.5
"2009-12-06 01:38:30",1477923,9.75,84.1,2.61,0.688,1.23,97.78844,-6.333,-4.991,48.11,0,109.1,13.76,-5.60,46.1
"2009-12-06 01:39:00",1477924,9.75,83.3,3.077,0.497,1.134,97.78817,-6.333,-4.991,48.6,0,109.2,13.76,-5.60,45.3
"2009-12-06 01:39:30",1477925,9.63,83,3.248,0.645,1.207,97.78872,-6.332,-4.972,48.73,0,109.1,13.76,-5.60,45.0
"2009-12-06 01:40:00",1477926,9.88,82.4,2.649,0.711,1.014,97.78844,-6.333,-4.997,48.85,0,109.1,13.76,-5.60,44.4
"2009-12-06 01:40:30",1477927,10.25,80.8,2.524,0.708,1.142,97.78899,-6.331,-4.988,48.97,0,109.1,13.76,-5.60,42.8
"2009-12-06 01:41:00",1477928,10.38,80.2,3.156,0.468,1.019,97.78844,-6.333,-4.976,49.19,0,109.1,13.76,-5.60,42.2
"2009-12-06 01:41:30",1477929,10.15,80.6,3.088,0.62,1.038,97.78788,-6.334,-4.967,49.58,0,109.1,13.76,-5.60,42.6
"2009-12-06 01:42:00",1477930,9.82,81.6,3.525,0.534,1.141,97.78817,-6.333,-4.978,49.16,0,109.1,13.75,-5.60,43.6
"2009-12-06 01:42:30",1477931,9.81,80.9,2.963,0.714,1.157,97.78928,-6.331,-4.996,48.9,0,109.1,13.75,-5.60,42.9
"2009-12-06 01:43:00",1477932,10.16,80.1,3.155,0.511,1.056,97.79011,-6.329,-4.98,48.95,0,109.2,13.75,-5.60,42.1
"2009-12-06 01:43:30",1477933,10.25,79.97,2.842,0.718,0.952,97.78872,-6.332,-4.974,49.33,0,109.1,13.75,-5.60,42.0
"2009-12-06 01:44:00",1477934,10.16,81.7,3.148,0.634,1.113,97.78955,-6.33,-4.993,49.11,0,109.1,13.75,-5.60,43.7
"2009-12-06 01:44:30",1477935,10.05,83.1,1.729,0.635,1.274,97.79093,-6.326,-4.996,48.77,0,109.1,13.75,-5.60,45.1
"2009-12-06 01:45:00",1477936,10.19,83.4,3.683,0.344,1.172,97.79149,-6.325,-4.973,48.65,0,109.2,13.75,-5.60,45.4
"2009-12-06 01:45:30",1477937,9.86,84.8,2.709,0.711,1.15,97.79121,-6.326,-4.977,48.71,0,109.1,13.75,-5.60,46.8
"2009-12-06 01:46:00",1477938,9.79,85.3,2.545,0.705,1.17,97.79147,-6.325,-4.991,48.63,0,109.1,13.75,-5.60,47.3